WetterOnline ( https://www.wetteronline.ch )

Wetter aktuell Ghedi

Aktuelles Wetter: Ghedi (97m)

6-stündlich | Neueste Meldungen
Ortszeit Temperatur Wetter
Di, 12.11. 1:00 9.0° C leichter Regen
Mo, 11.11. 19:00 9.0° C bedeckt
Mo, 11.11. 13:00 10.0° C leichter Regen
Mo, 11.11. 7:00 9.2° C Sprühregen
Mo, 11.11. 1:00 6.8° C wolkenlos
So, 10.11. 19:00 8.8° C leicht bewölkt
So, 10.11. 13:00 13.0° C wolkenlos
So, 10.11. 7:00 5.2° C leicht bewölkt
Ortszeit Temperatur Wetter
Di, 12.11. 3:00 9.0° C leichter Regen
Di, 12.11. 2:55 9° C leichter Regen
Di, 12.11. 2:00 9.0° C leichter Regen
Di, 12.11. 1:55 9° C leichter Regen
Di, 12.11. 1:00 9.0° C leichter Regen
Di, 12.11. 0:55 9° C leichter Regen
Di, 12.11. 0:00 9.0° C leichter Regen
Mo, 11.11. 23:55 9° C leichter Regen
Mo, 11.11. 23:00 9.0° C leichter Regen
Ortszeit Relative Feuchte Sichtweite
Di, 12.11. 1:00 85% 5.0 km
Mo, 11.11. 19:00 84% 10 km
Mo, 11.11. 13:00 77% 10 km
Mo, 11.11. 7:00 73% 10 km
Mo, 11.11. 1:00 82% 10 km
So, 10.11. 19:00 84% 10 km
So, 10.11. 13:00 63% 20 km
So, 10.11. 7:00 82% 5.0 km
Ortszeit Relative Feuchte Sichtweite
Di, 12.11. 3:00 85% 5.0 km
Di, 12.11. 2:55 87% 5.0 km
Di, 12.11. 2:00 85% 5.0 km
Di, 12.11. 1:55 87% 5.0 km
Di, 12.11. 1:00 85% 5.0 km
Di, 12.11. 0:55 87% 5.0 km
Di, 12.11. 0:00 86% 5.0 km
Mo, 11.11. 23:55 87% 5.0 km
Mo, 11.11. 23:00 87% 10 km
Ortszeit Niederschlagsmenge Niederschlagsart
Di, 12.11. 1:00 2 l/m2 in 6 Std. Regen
Mo, 11.11. 19:00 1 l/m2 in 12 Std. Regen
Mo, 11.11. 13:00 0.6 l/m2 in 6 Std. Regen
Mo, 11.11. 7:00 0.2 l/m2 in 12 Std. Sprühregen
Mo, 11.11. 1:00 0.0 l/m2 in 6 Std. -
So, 10.11. 19:00 0.0 l/m2 in 12 Std. -
So, 10.11. 13:00 0.0 l/m2 in 6 Std. -
So, 10.11. 7:00 0.0 l/m2 in 12 Std. -
Ortszeit Niederschlagsmenge Niederschlagsart
Di, 12.11. 3:00 keine Meldung -
Di, 12.11. 2:55 keine Meldung -
Di, 12.11. 2:00 keine Meldung -
Di, 12.11. 1:55 keine Meldung -
Di, 12.11. 1:00 keine Meldung -
Di, 12.11. 0:55 keine Meldung -
Di, 12.11. 0:00 keine Meldung -
Mo, 11.11. 23:55 keine Meldung -
Mo, 11.11. 23:00 keine Meldung -
Ortszeit Stärke Spitze Richtung
km/h Bft. km/h Grad Sektor
Di, 12.11. 1:00 7 2 - 330° NW
Mo, 11.11. 19:00 4 1 - 80° O
Mo, 11.11. 13:00 11 2 - 60° NO
Mo, 11.11. 7:00 15 3 - 80° O
Mo, 11.11. 1:00 11 2 - 60° NO
So, 10.11. 19:00 4 1 - 10° N
So, 10.11. 13:00 11 2 - 300° NW
So, 10.11. 7:00 7 2 - 30° NO
Ortszeit Stärke Spitze Richtung
km/h Bft. km/h Grad Sektor
Di, 12.11. 3:00 9 2 - 300° NW
Di, 12.11. 2:55 9 2 - 300° NW
Di, 12.11. 2:00 7 2 - 310° NW
Di, 12.11. 1:55 7 2 - 310° NW
Di, 12.11. 1:00 7 2 - 330° NW
Di, 12.11. 0:55 7 2 - 330° NW
Di, 12.11. 0:00 7 2 - 290° W
Mo, 11.11. 23:55 7 2 - 290° W
Mo, 11.11. 23:00 4 1 - 260° W
Ortszeit Untergrenze Bedeckung Gattung
total tief tief mittel hoch
Di, 12.11. 1:00 630 m 8/8 8/8 Cu - -
Mo, 11.11. 19:00 450 m 8/8 8/8 Cu - -
Mo, 11.11. 13:00 900 m 8/8 7/8 Cu Ac -
Mo, 11.11. 7:00 1200 m 7/8 3/8 Sc Ac -
Mo, 11.11. 1:00 - 0/8 0/8 - - -
So, 10.11. 19:00 6000 m 4/8 4/8 - - Ci
So, 10.11. 13:00 - 0/8 0/8 - - -
So, 10.11. 7:00 3000 m 2/8 2/8 - Ac -
Ortszeit Bedeckungsgrad in Achtel und Wolkenuntergrenze
Di, 12.11. 3:00 4(600m) 4(1110m)
Di, 12.11. 2:55 3-4(600m) 3-4(1110m)
Di, 12.11. 2:00 4(600m) 4(1080m)
Di, 12.11. 1:55 3-4(600m) 3-4(1080m)
Di, 12.11. 1:00 4(630m) 4(1080m)
Di, 12.11. 0:55 3-4(630m) 3-4(1080m)
Di, 12.11. 0:00 2(150m) 4(600m)
Mo, 11.11. 23:55 1-2(150m) 3-4(600m)
Mo, 11.11. 23:00 4(630m) 4(1110m)
Ortszeit Luftdruck NN (hPa) Tendenz (hPa in 3 Std.)
Di, 12.11. 1:00 1009 - 1,1
Mo, 11.11. 19:00 1011 - 1,0
Mo, 11.11. 13:00 1013 - 2,0
Mo, 11.11. 7:00 1015 - 0,3
Mo, 11.11. 1:00 1015 + 1,0
So, 10.11. 19:00 1012 + 2,4
So, 10.11. 13:00 1009 + 0,4
So, 10.11. 7:00 1009 - 0,4
Ortszeit Luftdruck NN (hPa) Tendenz (hPa in 3 Std.)
Di, 12.11. 3:00 1008 - 1,4
Di, 12.11. 2:55 1007 keine Meldung
Di, 12.11. 2:00 1009 - 1,2
Di, 12.11. 1:55 1008 keine Meldung
Di, 12.11. 1:00 1009 - 1,1
Di, 12.11. 0:55 1008 keine Meldung
Di, 12.11. 0:00 1009 - 0,6
Mo, 11.11. 23:55 1009 keine Meldung
Mo, 11.11. 23:00 1010 - 0,6
Ortszeit Schneehöhe (cm)
Di, 12.11. 1:00 -
Mo, 11.11. 19:00 -
Mo, 11.11. 13:00 -
Mo, 11.11. 7:00 0
Mo, 11.11. 1:00 -
So, 10.11. 19:00 -
So, 10.11. 13:00 -
So, 10.11. 7:00 -
Ortszeit Schneehöhe (cm)
Di, 12.11. 3:00 -
Di, 12.11. 2:55 -
Di, 12.11. 2:00 -
Di, 12.11. 1:55 -
Di, 12.11. 1:00 -
Di, 12.11. 0:55 -
Di, 12.11. 0:00 -
Mo, 11.11. 23:55 -
Mo, 11.11. 23:00 -
Link zu dieser Seite / Seite empfehlen

Das Wetter in ...